Precipitable_Water
1.90 1.89 1.88 1.88 2.03 2.04 1.99 2.03 2.09 2.03 2.07 2.01 1.95 1.98 2.05 1.98 1.98 2.03 2.00 2.00 2.02 1.97
2.03 1.97 1.95 1.95 1.96 2.06 2.12 2.10 1.78 1.66 1.89 1.96 2.05 1.97 1.88 1.88 1.86 1.90 1.90 1.91 2.01 1.96
1.62 1.61 1.58 1.54 1.49 1.48 1.55 1.70 1.85 1.94 2.06 2.00 1.96 1.81 1.88 1.94 1.93 1.86 1.86 1.89 1.88 1.88
1.24 1.25 1.28 1.26 1.29 1.30 1.34 1.39 1.39 1.45 1.58 1.74 1.84 1.96 1.87 1.88 2.01 1.96 1.95 1.94 1.91 1.86
0.74 0.76 0.78 0.83 0.93 1.05 1.10 1.19 1.24 1.33 1.38 1.42 1.49 1.73 1.81 1.85 1.89 1.89 1.90 1.95 1.97 1.92
0.56 0.60 0.67 0.75 0.82 0.84 0.87 0.93 1.02 1.09 1.14 1.23 1.39 1.41 1.58 1.73 1.84 1.87 1.89 1.99 2.01 1.92
0.59 0.61 0.61 0.64 0.68 0.75 0.82 0.89 0.97 1.00 1.03 1.12 1.24 1.37 1.46 1.51 1.61 1.72 1.75 1.86 1.88 1.94
0.63 0.66 0.67 0.65 0.65 0.66 0.69 0.74 0.80 0.88 1.00 1.08 1.12 1.22 1.28 1.38 1.48 1.40 1.62 1.69 1.69 1.85
0.66 0.67 0.69 0.71 0.72 0.71 0.69 0.70 0.72 0.73 0.78 0.87 0.99 1.13 1.26 1.34 1.36 1.43 1.46 1.44 1.57 1.68
0.64 0.65 0.68 0.70 0.71 0.71 0.71 0.73 0.71 0.71 0.73 0.75 0.87 1.00 1.12 1.23 1.31 1.37 1.40 1.45 1.49 1.53
0.61 0.63 0.67 0.70 0.70 0.73 0.76 0.77 0.79 0.79 0.79 0.78 0.79 0.93 1.06 1.13 1.18 1.24 1.34 1.40 1.38 1.37
0.62 0.63 0.67 0.68 0.71 0.75 0.77 0.81 0.83 0.87 0.88 0.87 0.86 0.90 0.96 1.09 1.13 1.14 1.18 1.22 1.30 1.36
0.65 0.67 0.69 0.73 0.75 0.81 0.84 0.85 0.89 0.90 0.95 0.97 0.94 0.99 0.98 1.07 1.14 1.12 1.12 1.17 1.25 1.35
0.68 0.71 0.75 0.79 0.83 0.85 0.86 0.88 0.90 0.94 1.01 1.03 1.07 1.07 1.07 1.09 1.15 1.15 1.11 1.11 1.18 1.39
Wind_Speed
9 12 14 14 15 17 18 19 20 20 20 19 19 19 19 19 20 20 21 21 20 20
13 13 15 16 16 17 18 19 16 18 20 21 22 22 21 21 20 20 22 22 22 22
12 13 14 16 17 18 19 18 18 20 22 23 23 21 21 23 23 23 23 23 23 22
13 15 16 17 18 19 19 20 21 21 22 22 23 24 24 24 24 23 23 23 23 23
16 17 18 20 20 21 21 21 22 23 23 23 23 24 25 26 26 25 26 26 25 25
16 17 19 20 21 22 23 23 24 24 24 25 24 24 25 26 26 27 27 27 28 27
18 19 20 21 22 22 23 23 24 25 25 25 26 26 26 27 28 28 28 28 29 29
19 20 22 23 24 24 25 25 26 26 26 26 26 27 27 28 28 29 30 31 31 31
21 21 22 22 23 24 24 25 26 27 27 28 28 28 29 29 29 30 30 30 30 30
20 21 22 24 24 24 25 26 27 28 28 28 29 29 29 30 29 30 30 29 29 29
22 23 24 24 24 25 26 27 27 28 28 28 29 31 31 30 30 30 29 29 29 29
23 24 24 25 25 26 27 27 27 27 28 29 30 31 32 32 30 30 29 28 28 28
23 24 24 25 26 26 27 27 27 27 28 29 29 30 30 31 30 29 28 27 27 27
24 24 24 25 26 26 27 27 27 27 27 27 27 27 27 27 28 27 26 26 25 24
Wind_Direction
271 272 278 282 278 271 270 271 272 272 271 270 269 268 266 268 265 261 261 263 262 263
285 281 284 289 292 289 288 283 278 272 277 271 268 268 267 265 264 265 264 262 261 263
291 293 293 292 292 291 289 288 282 280 277 274 272 268 267 264 264 265 264 263 261 263
295 295 295 295 295 294 291 289 285 283 282 280 275 269 267 266 266 266 263 262 261 263
297 296 295 295 295 295 293 290 287 285 283 281 278 273 269 266 265 264 264 263 262 263
303 302 300 299 297 295 293 290 288 286 284 282 278 275 271 269 267 266 266 265 262 265
304 303 302 300 299 298 296 294 291 288 285 282 279 276 274 270 268 266 265 263 265 264
307 306 305 303 301 299 297 295 293 290 287 284 281 277 275 273 270 267 266 265 265 263
309 309 309 309 308 305 301 297 294 292 289 285 281 278 276 274 272 269 267 266 266 264
309 309 311 310 309 307 305 302 298 294 289 286 282 279 276 274 272 269 267 265 265 265
309 309 310 311 310 309 308 306 302 299 294 289 285 279 276 274 271 269 267 266 265 264
309 309 310 311 311 310 310 308 306 303 299 294 289 285 276 272 270 268 266 265 264 263
309 309 309 310 310 311 311 309 308 306 304 300 294 289 280 269 266 266 265 264 263 263
308 309 309 310 311 313 312 310 308 307 307 304 301 294 284 272 265 264 264 263 262 262